Regional Weather Roundup
Issued by NWS Pendleton, OR

Current Version | Previous Version | Text Only | Print | Product List | Glossary On
Versions: 1 2 3 4 5 6 7 8 9 10 11 12 13 14 15 16 17 18 19 20 21 22 23 24 25 26 27 28 29 30 31 32 33 34 35 36 37 38 39 40 41 42 43 44 45 46 47 48 49 50
000
ASUS46 KPDT 231725
RWRPDT
PENDLETON REGIONAL WEATHER ROUNDUP
NATIONAL WEATHER SERVICE PENDLETON OREGON
1000 AM PDT WED JUL 23 2014

NOTE: FAIR INDICATES FEW OR NO CLOUDS BELOW 12,000 FEET WITH NO
SIGNIFICANT WEATHER AND/OR OBSTRUCTIONS TO VISIBILITY.

# INDICATES UNOFFICIAL STATION AND DATA

WAZ520-231810-
EAST SLOPES OF WASHINGTON CASCADES

CITY            SKY/WX      TMP DP  RH  WIND    PRES   REMARKS
#BUMPING DAM    N/A         54  N/A N/A S2      N/A
#CLE ELUM HS    N/A         60  59  96  W3      29.92R
#CLE ELUM LAKE  N/A         56  55  96  CALM    29.90R
#CLIFFDEL 2NW   N/A         57  57  100 W5      N/A
#GLENWOOD       N/A         60  59  96  SW6     29.92F
#MANASTASH CYN  N/A         58  55  90  CALM    29.98S
#NELSON         N/A         59  57  93  CALM    29.93R
#NELSON 3SW     N/A         57  55  93  CALM    30.11R
#RONALD 2NW     N/A         60  56  87  CALM    29.88R
#TROUT LAKE 1NE N/A         60  57  90  SW7     29.95R
$$

WAZ521-231810-
SIMCOE HIGHLANDS

CITY            SKY/WX      TMP DP  RH  WIND    PRES   REMARKS
#BICKLETON HS   N/A         65  48  54  N6      30.03S
#CENTERVILLE 1SWN/A         63  59  87  W6      29.90S
#GOLDENDALE 1NE N/A         64  60  87  SW2     N/A
#GOLDENDALE 1S  N/A         64  60  87  W6      29.96F
#GOLDENDALE 5WNWN/A         63  60  90  SW12    29.90F
#GOODNOE HILLS  N/A         68  61  78  NW17    29.90S
#LYLE 6NE       N/A         56  55  96  S6      29.93R
$$

WAZ026-231810-
KITTITAS VALLEY

CITY            SKY/WX      TMP DP  RH  WIND    PRES   REMARKS
ELLENSBURG AP   LGT RAIN    67  62  84  NW5     29.98R
#ELLENSBURG CWU N/A         64  61  90  NW2     29.86S
#ELLENSBURG 3NE N/A         63  60  90  NW1     29.98R
#ELLENSBURG 1E  N/A         64  58  81  CALM    N/A
#KITTITAS 3S    N/A         64  62  93  NW1     29.88R
#THORP 6N       N/A         61  59  93  CALM    29.94R
$$

WAZ027-231810-
YAKIMA VALLEY

CITY            SKY/WX      TMP DP  RH  WIND    PRES   REMARKS
YAKIMA AIRPORT  MOCLDY      67  62  84  W8      29.96S
#COWICHE 1N     N/A         63  58  84  NW2     30.10F
#DONALD 2NE     N/A         67  43  42  SW1     30.30S
#GRANDVIEW      N/A         70  60  71  W1      29.91F
#MABTON         N/A         71  62  73  CALM    29.92F
#MOXEE 2E       N/A         69  50  51  W6      29.88R
#NACHES 2SW     N/A         63  61  93  W2      29.98R
#OUTLOOK DOT    N/A         N/A N/A N/A W5      N/A
#SELAH 8E       N/A         66  59  78  W10     N/A
#TERRACE HTS    N/A         70  61  73  NW1     29.87R
#TOPPENISH      N/A         69  59  70  NW5     29.83S
#WAPATO 4NE     N/A         67  43  42  SW1     30.30S
#WEST VALLEY    N/A         65  61  87  CALM    29.92F
#W YAKIMA       N/A         66  62  87  NW2     29.88F
#WHITE SWAN 5E  N/A         66  61  84  W7      29.91F
#WILEY CITY 3W  N/A         63  54  72  CALM    29.96R
$$

WAZ028-231810-
LOWER COLUMBIA BASIN...WASHINGTON

CITY            SKY/WX      TMP DP  RH  WIND    PRES   REMARKS
HANFORD         CLOUDY      75  55  50  W8      29.89F
PASCO           CLOUDY      75  60  60  W7      29.91S
PROSSER AWOS    N/A         72  61  68  NW6     29.96S
RICHLAND AWOS   RAIN        75  55  50  SW7     29.91S
#BASIN CITY 5SW N/A         74  64  71  CALM    29.91F
#BENTON CITY    N/A         73  58  59  CALM    29.80S
#CONNELL 5N     N/A         81  55  41  E2      29.85F
#CONNELL 5NW    N/A         79  58  49  S1      29.82F
#ELTOPIA        N/A         78  62  58  SW6     29.84F
#ELTOPIA 6NW    N/A         72  61  68  NW6     28.89S
#KENNEWICK 3S   N/A         70  64  81  CALM    29.88F
#PASCO-BROADMOORN/A         77  61  58  W1      29.79S
#PATERSON       N/A         71  62  73  SW2     29.88F
#PROSSER        N/A         72  58  61  NW2     29.89S
#SAGEMOOR 2W    N/A         72  63  73  S1      29.74R
#TOUCHET 2S     N/A         77  64  64  CALM    29.86F
#WEST PASCO     N/A         77  61  58  W2      29.88S
$$

WAZ029-231810-
FOOTHILLS OF THE BLUES...WASHINGTON

CITY            SKY/WX      TMP DP  RH  WIND    PRES   REMARKS
WALLA WALLA AP  PTCLDY      78  56  47  VRB3    29.92F
#COLLEGE PLACE  N/A         83  59  44  W2      29.90S
#DAYTON SCHOOL  N/A         79  52  39  S2      29.90F
#LOWDEN 2SE     N/A         77  64  64  W1      29.85F
#PLEASANT VIEW 1N/A         80  55  42  CALM    29.87F
#PRESCOTT       N/A         80  60  51  CALM    29.83F
#SUDBURY        N/A         78  N/A N/A SW3     N/A
#WHITMAN COLLEGEN/A         76  60  58  SW3     29.91F
#WAITSBURG 8N   N/A         84  40  21  W3      29.76F
#WALLA WALLA 5E N/A         79  58  49  E6      N/A
#WALLA WALLA U  N/A         78  61  56  W1      29.85F
#WHITMAN MISSIONN/A         76  62  62  CALM    29.87F
$$

WAZ030-231810-
BLUE MOUNTAINS...WASHINGTON

CITY            SKY/WX      TMP DP  RH  WIND    PRES   REMARKS
$$

ORZ009-041-WAZ024-231810-
COLUMBIA RIVER GORGE

CITY            SKY/WX      TMP DP  RH  WIND    PRES   REMARKS
HOOD RIVER AP   LGT RAIN    59  55  87  W6      30.01R
THE DALLES AP   CLOUDY      66  56  70  MISG    29.97S
#ARLINGTON AIRPON/A         69  58  68  W12     N/A
#ARLINGTON HS   N/A         72  57  59  W1      29.83S
#CELILO DOT     N/A         68  52  57  S2      N/A
#MOSIER 1S      N/A         61  52  72  NW3     30.06S
#MURDOCK        N/A         66  58  75  NW20    29.97S
#RUFUS DOT      N/A         71  58  64  W2      N/A

$$

ORZ510-231810-
NORTH CENTRAL OREGON

CITY            SKY/WX      TMP DP  RH  WIND    PRES   REMARKS
#CHENOWITH 1W   N/A         55  54  96  NW28    N/A
#COW CYN RST AREN/A         61  60  97  S1      N/A
#DUFUR 9E       N/A         56  55  96  NW6     29.97S
#GRASS VALLEY 1SN/A         62  59  90  CALM    29.96R
#KENT DOT       N/A         63  49  60  W13     N/A
#MORO SCHOOL    N/A         61  60  97  W8      30.01S
#SHANIKO 5WSW   N/A         62  48  60  SW5     N/A
#SHANIKO 4NW    N/A         59  53  80  W6      30.05R
#TYGH VALLEY 2NEN/A         67  60  78  CALM    29.93S
#WAPANITIA AIRPON/A         65  58  78  W5      29.93S
#WASCO DOT      N/A         66  53  63  SW7     N/A
#WASCO 5NE      N/A         63  58  84  SW8     29.92S
$$

ORZ511-231810-
CENTRAL OREGON

CITY            SKY/WX      TMP DP  RH  WIND    PRES   REMARKS
BEND AIRPORT    CLOUDY      63  54  72  NW7     30.07S
MADRAS AIRPORT  CLOUDY      63  57  81  CALM    30.04S
REDMOND AIRPORT CLOUDY      63  52  67  W9      30.05R
#BEND 6E        N/A         63  52  67  CALM    29.86F
#BEND 1SW       N/A         59  52  78  N1      N/A
#BEND-AWBREY    N/A         61  55  81  SE2     29.92R
#BEND-KIM LN    N/A         61  55  81  S2      30.03S
#CROOKED RVR RANN/A         62  52  70  W6      29.95R
#CULVER         N/A         61  56  84  SW6     30.01R
#LAKE BILLY CHINN/A         63  26  24  SW3     30.09R
#POWELL BUTTE 3EN/A         60  57  90  NW3     N/A
#POWELL BUTTE   N/A         68  56  65  N13     29.70R
#PRINEVILLE 3N  N/A         65  58  78  SW3     29.87F


ORZ509-231810-
EAST SLOPES OF OREGON CASCADES

CITY            SKY/WX      TMP DP  RH  WIND    PRES   REMARKS
#BLUE BOX PASS  N/A         51   0  12  NW3     N/A
#BLACK BUTTE RNCN/A         54  52  93  CALM    29.94R
#CAMP SHERMAN   N/A         56  53  90  CALM    29.99R
#LA PINE DOT    N/A         61  49  65  W6      N/A
#LA PINE 4NW    N/A         56  51  83  CALM    29.96S
#LAVA BUTTE DOT N/A         61  47  60  SW2     N/A
#SISTERS AIRPOR N/A         56  56  100 N3      30.06R
#SISTERS ODOT   N/A         57  N/A N/A SW3     N/A
#SISTERS 3N     N/A         56  32  40  CALM    30.10R
#SUNRIVER       N/A         56  51  83  SW3     29.82R
#SUNRIVER AP    N/A         55  51  86  W2      29.90S
#SUTTLE LK DOT  N/A         48  48  100 SE7     N/A
#TUMALO 3W      N/A         59  53  80  NE3     29.82S
#WANOGA BUTTE D N/A         48  42  80  W12     N/A    WCI 43

$$

ORZ044-231810-
LOWER COLUMBIA BASIN...OREGON

CITY            SKY/WX      TMP DP  RH  WIND    PRES   REMARKS
HERMISTON       PTCLDY      76  61  60  W10     29.92F
#BOARDMAN SCHOOLN/A         80  60  51  CALM    29.90F
#BOARDMAN 3W    N/A         76  64  66  CALM    29.62F
#BOARDMAN 8SW   N/A         72  63  73  SW10    29.90F
#IONE SCHOOL    N/A         69  56  63  W10     29.96S
#IRRIGON 4NW    N/A         72  63  73  SW5     N/A
#UMATILLA SCHOOLN/A         74  67  79  W7      29.92F
#UMATILLA       N/A         74  61  64  NW2     29.89F
$$

ORZ507-231810-
NORTHERN FOOTHILLS OF THE BLUES

CITY            SKY/WX      TMP DP  RH  WIND    PRES   REMARKS
PENDLETON AIRPT LGT RAIN    74  60  62  W17     29.94S
#ADAMS 3WNW     N/A         75  60  60  W10     29.85S
#ATHENA         N/A         77  58  52  W3      29.87F
#HELIX SCHOOL   N/A         73  58  59  W6      29.86R
#HELIX 3N       N/A         74  59  59  SW13    29.92S
#HOLDMAN 5SE    N/A         72  63  73  W8      29.95R
#M-F FERNDALE   N/A         73  66  79  CALM    29.90F
#M-F GROVE ELEM N/A         77  55  47  CALM    29.90F
#M-FREEWATER 5SEN/A         77  61  58  CALM    29.91F
#PDT AQUATIC CTRN/A         76  61  60  W6      29.89S
#PENDLETON DNTN N/A         76  59  56  W3      29.89S
#PENDLETON 5NE  N/A         75  62  64  W2      29.90F
#PDT SUNRIDGE   N/A         76  61  60  W7      29.94S
#PENDLETON 7NW  N/A         75  63  66  W5      27.37F
#PILOT ROCK     N/A         76  58  54  NW1     29.96S
#TUTUILLA       N/A         76  62  62  W10     29.82S
#UMAPINE 2E     N/A         78  61  56  N1      29.87F
#WESTON SCHOOL  N/A         77  55  47  N5      29.91F

$$

ORZ508-231810-
SOUTHERN FOOTHILLS OF THE BLUES

CITY            SKY/WX      TMP DP  RH  WIND    PRES   REMARKS
#AJAX           N/A         N/A N/A N/A W6      30.03S
#CONDON SCHOOL  N/A         64  57  78  W6      29.98S
#CONDON 5W      N/A         63  51  65  W13     30.01S
#HEPPNER EOC    N/A         71  59  66  N7      29.84F
#HEPPNER 4NE    N/A         67  58  73  W7      29.89F
#LEXINGTON 2SE  N/A         72  61  68  NW8     29.95F
#MIKKALO        N/A         68  57  68  W9      29.99S
#RUGGS 5NE      N/A         68  58  70  W7      30.17F
#RUGGS 2SW      N/A         67  58  73  NW8     29.93S

$$

ORZ502-503-231810-
BLUE MOUNTAINS

CITY            SKY/WX      TMP DP  RH  WIND    PRES   REMARKS
MEACHAM         MOSUNNY     71  59  66  CALM    30.03F
#BATTLE MTN DOT N/A         67  57  70  S2      N/A
#HARDMAN 10S    N/A         65  55  70  CALM    30.11S
#HEPPNER 15SE   N/A         66  56  70  W3      29.96S
#LADD CYN SMT   N/A         70  49  47  E15     N/A
#LADD CREEK ODOTN/A         74  53  48  SE3     N/A
#LONG CREEK HS  N/A         73  51  46  S13     29.97F
#PIKES PEAK     N/A         69  56  63  SW2     27.99S
#TROY SCHOOL    N/A         73  61  66  CALM    29.75F
#UKIAH          N/A         69  58  68  CALM    29.91F
#WESTON 4E      N/A         74  58  57  S1      29.80F
$$

ORZ505-231810-
JOHN DAY BASIN

CITY            SKY/WX      TMP DP  RH  WIND    PRES   REMARKS
JOHN DAY        SUNNY       79  49  35  S15     30.03F
#JOHN DAY KJDY  N/A         79  55  44  SE1     29.93F
#MONUMENT HS    N/A         71  57  61  CALM    29.77F
#MT. VERNON 5SE N/A         72  52  49  SE7     30.01F
#WINLOCK        N/A         71  58  64  CALM    30.09F
$$

ORZ506-231810-
OCHOCO AND JOHN DAY HIGHLANDS

CITY            SKY/WX      TMP DP  RH  WIND    PRES   REMARKS
#BUCK CREEK DOT N/A         67  55  65  SW9     N/A
#HORSE RIDGE DO N/A         65  47  52  SW10    N/A
#KEYES SMT DOT  N/A         66  50  56  CALM    N/A
#PAULINA SCHOOL N/A         N/A N/A N/A S8      30.04F
#PINE MTN OBS   N/A         53  47  80  SE14G28 N/A
#PRAIRIE CITY   N/A         69  56  63  CALM    29.90F
#SENECA 9NW     N/A         66  53  63  CALM    29.85F
$$

ORZ049-231810-
GRANDE RONDE VALLEY

CITY            SKY/WX      TMP DP  RH  WIND    PRES   REMARKS
LA GRANDE       SUNNY       75  54  48  S10     30.00F
#COVE           N/A         69  63  81  E1      29.94F
#COVE SCHOOL    N/A         70  61  73  CALM    30.00F
#COVE 6NW       N/A         68  58  70  CALM    29.93F
#ELGIN 3N       N/A         73  56  55  CALM    29.74F
#ELGIN 1E       N/A         67  57  70  CALM    N/A
#IMBLER SCHOOL  N/A         61  55  81  CALM    29.98F
#ISLAND CITY 4N N/A         74  60  62  CALM    29.83F
#LADD CYN DOT   N/A         72  53  51  SE15    N/A
#UNION 1S       N/A         74  61  64  S6      29.78F
$$

ORZ050-231810-
WALLOWA COUNTY

CITY            SKY/WX      TMP DP  RH  WIND    PRES   REMARKS
JOSEPH AIRPORT  SUNNY       70  54  57  N5      30.07F
#ENTERPRISE AP  N/A         66  35  32  CALM    29.99S
#ENTERPRISE HS  N/A         70  59  68  CALM    30.05F
#IMNAHA 10S     N/A         75  61  62  NE2     29.99F
#JOSEPH 3N      N/A         68  58  70  CALM    30.06F
#JOSEPH 3W      N/A         71  56  59  SW2     29.92F
#LOSTINE        N/A         70  58  66  CALM    29.67F
#MT HOWARD 8000 N/A         57  39  51  S8      30.30R
#PROMISE 1S     N/A         65  59  81  CALM    30.02F
#SHEEP RDG 7000 N/A         62  45  54  CALM    29.88F
#WALLOWA SCHOOL N/A         70  57  63  CALM    30.76F



$$



USA.gov is the U.S. government's official web portal to all federal, state and local government web resources and services.